This demonstration page uses our WeatherBlox Daily Observations layout. Learn more.

Left ArrowRight Arrow

34.02893, -84.19858

Hourly Observations for May 30, 2015

Temp ( °F °C ) Dew Point ( °F °C ) Humidity (%) Winds ( mph kmh ) Pressure ( in mb ) Visibility ( mi km ) Precip ( " mm )
12:53 am 00:53 Clear 66 18.9 62 16.7 87 87 Calm 30.12 1020 8 13 0.00 0.00
1:53 am 01:53 Clear 65 18.3 62 16.7 90 90 Calm 30.11 1020 7 11 0.00 0.00
2:53 am 02:53 Clear 65 18.3 62 16.7 90 90 Calm 30.11 1020 7 11 0.00 0.00
3:53 am 03:53 Mostly Clear 64 17.8 62 16.7 93 93 Calm 30.11 1020 7 11 0.00 0.00
4:53 am 04:53 Clear 65 18.3 61 16.1 87 87 Calm 30.11 1020 9 14 0.00 0.00
5:53 am 05:53 Clear 64 17.8 61 16.1 90 90 Calm 30.12 1020 8 13 0.00 0.00
6:53 am 06:53 Mostly Cloudy with Mist and Fog 65 18.3 62 16.7 90 90 Calm 30.14 1021 6 10 0.00 0.00
7:53 am 07:53 Sunny 69 20.6 65 18.3 87 87 SSE 5 7 30.14 1021 7 11 0.00 0.00
8:53 am 08:53 Sunny 73 22.8 67 19.4 81 81 VRB 3 6 30.14 1021 8 13 0.00 0.00
9:53 am 09:53 Sunny 75 23.9 66 18.9 74 74 SSW 6 9 30.14 1021 9 14 0.00 0.00
10:53 am 10:53 Sunny 78 25.6 66 18.9 67 67 VRB 6 9 30.14 1021 9 14 0.00 0.00
11:53 am 11:53 Mostly Sunny 80 26.7 65 18.3 60 60 SSE 7 11 30.14 1021 9 14 0.00 0.00
12:53 pm 12:53 Sunny 82 27.8 64 17.8 55 55 SSE 7 11 30.13 1020 9 14 0.00 0.00
1:53 pm 13:53 Partly Cloudy 82 27.8 63 17.2 53 53 ESE 6 9 30.11 1020 9 14 0.00 0.00
2:53 pm 14:53 Mostly Sunny 83 28.3 64 17.8 53 53 ESE 6 9 30.10 1019 9 14 0.00 0.00
3:53 pm 15:53 Mostly Sunny 83 28.3 64 17.8 53 53 VRB 6 9 30.07 1018 9 14 0.00 0.00
4:53 pm 16:53 Sunny 84 28.9 64 17.8 51 51 SE 8 13 30.05 1018 9 14 0.00 0.00
5:53 pm 17:53 Sunny 83 28.3 61 16.1 48 48 SE 8 13 30.04 1017 10 16 0.00 0.00
6:53 pm 18:53 Sunny 83 28.3 62 16.7 49 49 SSE 8 13 30.03 1017 10 16 0.00 0.00
7:53 pm 19:53 Mostly Sunny 81 27.2 63 17.2 54 54 VRB 5 7 30.03 1017 9 14 0.00 0.00
8:53 pm 20:53 Clear 77 25 64 17.8 64 64 Calm 30.03 1017 9 14 0.00 0.00
9:53 pm 21:53 Clear 73 22.8 65 18.3 76 76 Calm 30.04 1017 10 16 0.00 0.00
10:53 pm 22:53 Clear 72 22.2 65 18.3 79 79 undefined N/A 30.05 1018 9 14 0.00 0.00
11:53 pm 23:53 Clear 70 21.1 65 18.3 84 84 Calm 30.05 1018 9 14 0.00 0.00

Powered by AerisWeather